Location: Paimpol
(48.7798°N, 3.0488°W)
Time: 13:20:34
(UTC+01:00)

Tiangong - Visible Passes

Search period start: 16 January 2026 00:00
Search period end: 26 January 2026 00:00
Orbit: 378 x 394 km, 41.5° (Epoch: 16 January)

Date Brightness Start Highest point End Pass type
(mag) Time Alt. Az. Time Alt. Az. Time Alt. Az.
18 Jan 0.8 07:47:08 10° SSW 07:48:50 14° SSE 07:50:34 10° SE visible
20 Jan 0.4 07:24:40 10° SSW 07:26:53 17° SSE 07:29:06 10° ESE visible
21 Jan 0.6 06:27:55 14° SSE 06:27:55 14° SSE 06:29:31 10° SE visible
21 Jan 0.0 08:01:28 10° SW 08:04:00 22° S 08:06:34 10° SE visible
22 Jan 0.0 07:03:44 17° SSW 07:04:50 20° S 07:07:17 10° ESE visible
23 Jan 1.0 06:07:14 13° SE 06:07:14 13° SE 06:07:53 10° ESE visible
23 Jan -0.1 07:39:28 10° SW 07:41:56 21° S 07:44:28 10° SE visible
24 Jan -0.2 06:42:54 22° S 06:42:54 22° S 06:45:15 10° SE visible
24 Jan 0.3 08:16:55 10° SW 08:18:58 16° SSW 08:21:02 10° SSE visible
25 Jan -0.1 07:18:30 16° SW 07:19:45 19° S 07:22:07 10° SE visible
